TimeMST,TemperatureF,Dew PointF,Humidity,Sea Level PressureIn,VisibilityMPH,Wind Direction,Wind SpeedMPH,Gust SpeedMPH,PrecipitationIn,Events,Conditions,WindDirDegrees,DateUTC
12:55 AM,68.0,34.0,28,29.92,10.0,Calm,Calm,-,N/A,,Mostly Cloudy,0,2013-03-28 07:55:00
1:55 AM,64.9,37.0,36,29.92,10.0,SSW,3.5,-,N/A,,Mostly Cloudy,200,2013-03-28 08:55:00
2:55 AM,64.9,35.1,33,29.91,10.0,Calm,Calm,-,N/A,,Mostly Cloudy,0,2013-03-28 09:55:00
3:55 AM,63.0,35.1,35,29.90,10.0,Calm,Calm,-,N/A,,Mostly Cloudy,0,2013-03-28 10:55:00
4:55 AM,62.1,37.9,41,29.91,10.0,Calm,Calm,-,N/A,,Mostly Cloudy,0,2013-03-28 11:55:00
5:55 AM,61.0,36.0,39,29.93,10.0,SSE,3.5,-,N/A,,Scattered Clouds,160,2013-03-28 12:55:00
6:55 AM,61.0,34.0,36,29.94,10.0,Calm,Calm,-,N/A,,Mostly Cloudy,0,2013-03-28 13:55:00
7:55 AM,63.0,35.1,35,29.96,10.0,Calm,Calm,-,N/A,,Mostly Cloudy,0,2013-03-28 14:55:00
8:55 AM,70.0,37.0,30,29.99,10.0,Calm,Calm,-,N/A,,Mostly Cloudy,0,2013-03-28 15:55:00
9:55 AM,73.9,37.0,26,30.00,10.0,Calm,Calm,-,N/A,,Mostly Cloudy,0,2013-03-28 16:55:00
10:55 AM,75.9,37.0,24,30.01,10.0,Calm,Calm,-,N/A,,Mostly Cloudy,0,2013-03-28 17:55:00
11:55 AM,80.1,39.0,23,29.99,10.0,Calm,Calm,-,N/A,,Mostly Cloudy,0,2013-03-28 18:55:00
12:55 PM,82.9,33.1,17,29.98,10.0,NW,6.9,-,N/A,,Mostly Cloudy,310,2013-03-28 19:55:00
1:55 PM,84.0,30.0,14,29.96,10.0,NW,3.5,-,N/A,,Mostly Cloudy,310,2013-03-28 20:55:00
2:55 PM,84.9,30.9,14,29.93,10.0,Variable,4.6,-,N/A,,Mostly Cloudy,0,2013-03-28 21:55:00
3:55 PM,84.0,32.0,15,29.92,10.0,West,5.8,-,N/A,,Mostly Cloudy,260,2013-03-28 22:55:00
4:55 PM,84.9,32.0,15,29.91,10.0,WNW,6.9,-,N/A,,Mostly Cloudy,290,2013-03-28 23:55:00
5:55 PM,82.9,32.0,16,29.91,10.0,NW,3.5,-,N/A,,Mostly Cloudy,310,2013-03-29 00:55:00
6:55 PM,81.0,35.1,19,29.91,10.0,Calm,Calm,-,N/A,,Mostly Cloudy,0,2013-03-29 01:55:00
7:55 PM,79.0,37.9,23,29.92,10.0,Calm,Calm,-,N/A,,Mostly Cloudy,0,2013-03-29 02:55:00
8:55 PM,75.9,41.0,29,29.94,10.0,SW,4.6,-,N/A,,Mostly Cloudy,220,2013-03-29 03:55:00
9:55 PM,73.9,39.9,29,29.96,10.0,South,8.1,-,N/A,,Mostly Cloudy,190,2013-03-29 04:55:00
10:55 PM,69.1,39.9,35,29.97,10.0,SW,3.5,-,N/A,,Scattered Clouds,220,2013-03-29 05:55:00
11:55 PM,68.0,39.0,35,29.97,10.0,SSE,3.5,-,N/A,,Scattered Clouds,160,2013-03-29 06:55:00